Temperature
22 21 21 21 22 22 24 25 26 25 25 25 25 25 24 23 21 19 18 18 18 18 18 18 18 17 17 17 17 17 17 17 17 17 17 17 17 17 17 17 17 17 17 17 17 17 17 18 17
22 21 22 22 22 23 24 25 25 25 25 25 25 25 24 22 20 19 18 18 18 18 17 18 18 17 17 17 17 17 17 17 17 17 17 17 17 17 17 17 17 17 17 17 17 17 17 17 17
22 22 22 23 24 24 24 25 25 25 25 25 25 24 22 21 20 19 18 18 18 17 17 18 18 18 17 17 17 17 17 17 17 17 17 17 17 17 17 17 17 17 17 17 17 17 17 17 17
22 22 23 24 24 25 25 25 25 25 25 25 25 23 21 20 20 19 18 18 18 17 17 18 18 17 17 17 17 17 17 17 17 17 17 17 17 17 17 17 17 17 17 17 17 17 17 17 17
23 23 23 24 24 25 26 26 26 25 25 25 24 22 20 20 19 19 18 18 18 17 17 18 18 17 17 17 17 17 17 17 17 17 17 17 17 17 17 16 17 17 17 17 17 17 17 17 17
23 24 24 23 24 25 26 26 25 25 25 24 24 22 20 19 19 19 18 18 18 17 17 18 17 17 17 17 17 17 17 17 17 17 17 16 16 16 17 16 16 17 17 17 17 17 17 17 17
24 23 24 24 24 24 25 26 25 25 24 24 24 22 20 19 19 18 18 18 18 18 17 17 17 17 17 17 17 17 17 17 17 16 16 16 16 16 16 16 16 16 16 16 16 16 16 17 17
24 24 24 24 24 24 25 25 25 24 24 23 23 22 20 19 19 18 18 18 18 18 18 17 17 17 17 17 17 17 17 17 16 16 16 16 16 16 16 16 16 16 16 16 16 16 16 16 16
24 24 23 24 24 24 25 25 24 24 24 23 23 22 20 19 19 18 18 18 18 18 18 18 17 17 17 17 17 17 17 17 16 16 16 16 16 16 16 16 16 16 16 16 16 16 16 16 16
25 23 24 25 25 25 25 25 25 24 23 23 22 21 20 19 19 19 19 18 18 18 18 18 17 17 17 17 17 17 16 16 16 16 16 16 16 16 16 16 16 16 16 16 16 16 16 16 16
25 24 25 25 25 25 25 24 24 24 23 23 22 20 20 19 19 19 19 18 18 18 18 18 17 17 17 17 17 16 16 16 16 16 16 16 16 16 16 16 15 15 15 16 16 16 16 16 16
25 25 25 25 25 25 25 24 24 23 22 22 21 21 20 20 19 19 19 19 18 18 18 17 17 17 17 17 17 17 16 16 16 16 16 16 16 16 16 15 15 15 15 15 15 16 16 16 15
25 25 25 25 25 24 24 24 23 23 22 22 21 21 20 20 20 19 19 19 18 18 18 17 17 17 17 17 17 16 16 16 16 16 16 16 16 16 16 15 15 15 15 15 15 15 15 15 15
25 25 25 25 25 25 24 24 23 22 22 22 21 21 20 20 20 20 19 19 18 18 18 17 17 17 17 17 17 16 16 16 16 16 16 16 16 16 15 15 15 15 15 15 15 15 15 15 15
25 25 24 25 25 25 24 23 23 22 22 22 21 21 20 20 20 20 19 19 19 18 18 18 18 17 17 17 16 16 16 16 16 16 16 16 16 16 15 15 15 15 15 15 15 15 15 15 15
25 24 23 24 25 25 24 22 23 23 22 22 21 21 20 20 20 20 19 19 19 18 18 18 17 17 17 17 16 16 16 16 16 16 16 16 16 16 15 15 15 15 15 15 15 15 15 15 15
24 23 23 24 25 25 24 22 23 23 22 22 21 21 20 20 20 20 19 19 19 18 18 18 17 17 17 17 16 16 16 16 16 16 16 16 16 15 15 15 15 15 15 15 15 15 15 15 15
23 24 24 24 24 24 23 23 23 23 23 22 21 21 20 20 20 19 19 19 19 18 18 18 17 17 17 17 16 16 16 16 16 15 15 15 15 15 15 15 15 15 15 15 15 15 14 14 14
24 24 24 24 24 24 23 23 23 23 22 22 21 21 21 20 20 20 19 19 19 18 18 18 18 17 17 16 16 16 16 16 16 15 15 15 15 15 15 15 15 15 15 14 14 14 14 14 14
24 23 23 24 24 24 23 23 23 23 22 22 22 21 21 20 20 19 19 19 18 18 18 18 17 17 17 17 16 16 16 16 15 15 15 15 15 15 15 15 15 15 14 14 14 14 14 14 14
24 23 23 23 23 24 23 22 22 23 22 22 22 21 21 21 20 19 19 19 18 18 18 18 17 17 17 16 16 16 16 16 16 15 15 15 15 15 15 15 15 14 14 14 14 14 14 14 14
23 24 24 23 22 22 23 21 22 22 22 22 22 21 21 20 20 19 19 19 18 18 18 17 17 17 17 16 16 16 16 16 15 15 15 15 15 15 15 15 15 14 14 14 14 14 14 14 14
24 24 24 24 23 23 23 22 22 23 21 21 22 21 21 20 20 19 19 19 18 18 17 17 17 17 17 16 16 16 16 16 15 15 15 15 15 15 15 15 15 15 14 14 14 14 14 14 14
24 24 24 24 23 21 23 22 21 22 22 22 21 21 20 20 19 19 18 18 18 18 17 17 17 17 17 16 16 16 16 15 15 15 15 15 15 15 15 15 15 15 14 14 14 14 14 14 14
24 22 21 21 21 21 23 22 21 22 23 22 21 20 20 19 19 18 18 17 17 17 17 17 17 16 16 16 16 16 16 15 15 15 15 15 15 15 15 15 15 14 14 14 14 14 14 14 14
23 23 21 20 21 22 23 22 21 22 22 22 21 20 19 18 18 18 17 17 17 17 16 16 16 16 16 16 16 16 16 15 15 15 15 15 15 15 15 15 15 14 14 14 14 14 14 14 14
23 23 23 22 22 21 22 22 21 22 22 21 21 20 19 18 18 17 17 17 17 16 16 16 16 16 16 16 16 16 16 15 15 15 15 15 15 15 15 15 14 14 14 14 14 14 14 14 14
24 24 23 22 21 20 22 22 21 21 21 21 20 19 19 18 18 17 17 16 16 16 16 16 16 16 16 16 16 16 15 15 15 15 15 15 15 15 15 14 14 14 14 14 14 14 14 14 14
23 23 23 22 22 21 20 20 22 21 21 21 20 19 19 18 18 17 16 16 16 16 16 16 16 15 15 15 15 15 15 15 15 15 15 15 15 15 14 14 14 14 14 14 14 14 14 14 14
23 23 23 21 21 21 20 20 23 22 21 21 20 19 19 18 18 17 16 16 16 16 15 15 15 15 15 15 15 15 15 15 15 15 15 15 15 15 14 14 14 14 14 13 13 13 13 13 13
Wind_Speed
10 12 8 3 3 2 2 6 8 8 7 8 8 8 12 13 8 7 3 5 9 9 11 11 10 10 11 11 11 12 12 11 11 11 11 11 10 11 10 10 10 10 11 11 11 11 12 12 12
10 7 4 3 3 1 3 6 9 10 8 6 7 10 12 11 10 8 4 6 9 10 10 11 10 10 11 11 11 11 11 11 11 11 11 10 10 10 10 10 10 11 11 11 11 11 12 12 11
11 7 4 3 2 2 5 8 8 9 6 5 6 9 8 7 8 6 5 7 9 10 12 11 10 10 11 11 11 11 11 11 11 11 11 10 9 9 11 11 11 11 11 11 12 11 12 12 11
5 3 4 2 2 6 7 7 6 7 6 5 6 8 8 8 6 8 7 8 10 10 12 12 11 11 11 11 12 12 12 11 11 11 11 11 11 11 12 12 12 12 12 12 12 12 12 11 11
4 3 3 1 3 6 7 6 5 6 5 6 7 9 9 9 11 10 7 7 9 9 11 12 11 11 11 11 11 12 12 11 11 11 12 13 14 13 13 13 13 13 12 13 13 13 13 12 12
3 3 2 1 4 6 6 5 5 6 6 7 6 8 7 8 9 7 6 7 8 9 11 12 12 11 11 11 11 11 12 12 12 12 13 14 14 14 13 13 13 13 13 13 13 13 12 12 11
3 3 2 1 4 5 4 4 5 5 6 6 4 6 7 8 7 6 6 6 8 8 9 10 11 11 11 11 11 11 11 11 11 11 12 12 13 13 13 13 13 13 12 12 11 11 11 11 10
4 3 2 1 4 4 4 4 5 5 5 5 4 5 7 9 7 7 5 6 7 7 7 8 9 10 10 10 10 10 10 9 10 9 9 10 11 12 13 12 12 12 11 10 10 9 9 9 9
4 2 2 2 3 3 4 4 4 3 4 5 7 9 11 12 9 7 6 6 5 6 5 6 7 8 9 9 9 8 8 7 8 7 6 6 8 10 11 11 11 10 9 9 7 6 6 6 7
2 1 3 4 4 3 4 3 2 4 4 5 8 11 13 10 8 7 6 6 6 5 5 5 5 5 6 7 8 6 6 6 5 6 6 5 7 9 10 9 9 8 7 6 4 3 2 3 5
1 1 3 4 5 4 3 3 2 3 3 4 6 10 10 9 7 6 6 6 6 5 5 5 5 4 4 4 4 3 4 4 3 5 7 6 6 7 8 5 5 5 4 3 3 2 3 5 5
1 1 2 2 3 3 2 2 4 5 4 5 7 10 10 8 6 5 6 6 6 6 5 4 4 3 4 5 3 3 2 3 3 3 7 5 3 4 4 4 3 3 3 4 4 3 6 7 7
1 1 2 2 2 2 3 4 4 3 4 6 8 9 7 6 6 6 6 6 6 7 6 4 3 4 4 4 2 4 3 3 4 3 5 6 3 3 3 4 3 4 4 4 4 4 5 6 7
2 2 1 1 2 1 2 2 2 3 4 5 6 6 6 5 5 5 5 5 6 7 6 5 4 4 5 4 3 3 3 3 3 2 4 6 4 4 3 4 3 3 3 4 4 5 4 5 5
2 3 3 3 3 2 1 0 2 4 5 5 5 4 5 5 4 4 4 4 5 6 6 5 4 4 5 5 4 3 3 4 3 2 3 5 5 6 4 3 2 2 4 5 5 5 4 4 4
6 4 3 3 3 3 3 2 2 5 5 5 5 5 5 4 5 4 4 4 5 5 6 5 4 4 5 5 4 2 3 4 3 3 3 4 6 7 5 3 2 4 5 4 3 3 4 4 4
4 4 4 3 3 2 2 1 3 4 6 5 4 4 5 5 5 5 5 3 4 5 6 5 5 4 5 4 4 2 3 3 3 3 2 3 5 7 5 3 3 5 4 3 3 4 3 4 3
4 4 3 1 2 2 3 3 4 4 4 4 4 4 4 5 5 6 6 5 4 4 5 6 5 5 5 4 3 2 2 2 3 3 3 3 4 5 5 2 4 5 3 3 3 4 3 2 2
5 6 5 1 1 2 3 2 3 4 3 3 3 3 4 4 6 7 6 6 5 4 4 5 5 5 4 3 3 3 2 1 2 2 3 3 4 5 4 3 3 3 3 3 3 2 2 2 1
5 5 5 3 2 3 4 4 3 4 4 3 4 3 3 4 6 6 6 6 5 4 4 5 5 5 5 3 2 3 3 2 2 2 2 3 3 3 2 3 3 3 3 3 3 2 1 1 1
6 4 4 5 5 6 6 5 4 5 5 4 3 3 3 4 6 7 6 6 5 4 4 4 5 5 5 4 2 2 3 2 1 2 2 1 2 2 3 3 3 3 3 2 1 2 1 1 2
7 4 5 6 7 6 5 3 2 5 6 4 4 3 3 3 4 6 6 6 6 5 4 4 4 5 5 5 3 3 3 3 2 2 2 2 2 2 3 3 3 3 3 3 2 2 1 1 1
6 5 7 9 9 8 8 4 2 5 5 5 4 3 4 4 4 5 5 5 5 4 4 4 3 3 4 4 4 3 3 3 2 2 2 2 2 2 3 3 2 3 2 2 1 2 2 1 1
6 8 10 9 7 7 7 4 0 2 4 5 5 4 4 5 5 5 5 5 4 4 3 3 3 3 3 3 4 4 4 3 3 3 3 2 2 2 2 3 2 3 2 2 2 1 1 1 1
6 6 4 3 5 3 1 1 2 4 4 5 6 5 4 5 5 4 5 5 3 3 3 3 3 2 2 3 4 5 4 4 4 3 3 3 2 2 2 2 2 2 2 2 2 2 2 2 2
6 5 4 4 4 2 1 1 4 7 6 7 7 6 5 5 4 4 5 5 4 3 2 2 4 3 3 2 2 3 4 3 2 3 2 3 2 3 2 2 2 1 1 2 2 2 2 2 2
6 5 6 7 9 6 2 3 5 7 7 7 7 7 6 6 5 4 4 4 4 3 2 1 2 2 3 3 2 2 3 3 3 3 2 2 3 3 3 2 2 2 1 1 1 2 2 2 2
8 7 5 4 4 5 3 3 3 6 5 6 7 6 5 5 5 4 4 4 3 3 3 2 2 1 1 2 2 2 2 2 3 2 1 1 2 2 3 3 2 2 2 2 1 1 1 2 2
5 6 6 5 5 4 4 1 4 5 5 6 6 6 6 5 5 4 4 3 3 3 3 2 1 1 1 1 1 2 2 1 1 2 2 2 2 2 3 3 2 2 2 2 2 2 2 2 2
6 7 7 5 6 5 4 1 4 5 6 6 6 6 6 5 5 4 4 3 2 2 2 2 1 1 1 0 1 0 1 2 2 2 2 2 2 2 3 3 3 2 2 2 3 3 2 2 2
Wind_Direction
265 249 240 252 259 237 54 69 73 63 59 51 47 56 64 54 48 86 116 84 94 95 98 87 73 68 69 73 77 78 78 75 70 65 63 65 67 70 68 68 67 66 64 62 62 62 62 63 63
273 271 262 241 255 241 79 77 72 68 72 67 57 57 68 65 70 97 112 88 92 93 91 87 80 75 73 72 77 78 78 75 72 67 63 63 66 71 72 69 69 67 65 62 64 63 65 65 64
262 263 263 252 313 35 74 76 84 83 72 67 66 58 56 63 77 102 109 104 95 92 91 92 86 82 78 75 79 80 77 75 73 69 65 62 66 75 76 72 69 67 66 67 66 65 67 66 64
258 251 247 255 28 56 72 90 95 95 76 61 73 80 74 60 82 107 112 107 99 97 96 96 90 88 84 80 81 82 81 77 73 71 66 64 72 81 79 72 68 67 68 70 69 67 67 65 65
241 254 244 202 72 71 73 74 85 90 87 67 71 90 91 81 92 103 105 103 102 102 102 102 98 95 90 87 84 84 84 79 77 74 70 70 76 82 80 75 69 69 71 71 69 69 66 62 60
260 257 257 140 96 79 78 80 85 84 91 86 86 98 98 101 98 104 107 105 107 110 111 111 109 102 95 91 88 87 85 82 80 78 76 76 78 81 80 77 74 72 72 71 69 69 66 64 60
280 287 283 79 102 90 81 78 76 85 73 66 74 96 115 114 112 118 114 110 107 108 114 120 122 115 105 99 96 93 90 88 86 86 84 85 85 86 85 80 78 75 74 73 71 69 67 64 60
277 286 318 51 95 88 82 81 77 73 78 65 46 93 126 129 132 126 121 112 108 113 121 127 128 127 122 116 111 107 102 100 99 98 97 96 94 92 89 84 82 79 77 76 76 74 71 65 58
270 283 349 32 75 99 112 104 89 89 93 87 66 78 115 130 137 135 131 113 108 112 117 122 126 130 129 127 120 125 119 117 122 125 124 121 112 103 94 91 90 88 86 84 82 83 83 75 62
200 22 36 37 67 86 81 86 126 121 101 96 95 100 117 132 140 140 135 128 123 118 117 111 116 119 121 121 134 143 130 141 150 132 132 121 101 99 102 104 102 102 97 95 88 80 74 74 70
121 80 50 43 60 71 75 59 53 90 91 93 115 123 129 138 142 143 138 136 136 130 115 115 115 109 115 111 121 113 120 137 105 102 99 86 97 109 109 115 120 115 103 75 66 57 58 67 67
92 81 76 54 64 67 76 83 69 64 72 87 107 125 136 148 147 145 141 137 139 123 112 112 118 119 114 112 111 105 101 96 80 79 97 88 86 93 101 98 83 86 77 61 57 51 50 50 50
124 92 95 76 83 78 81 78 86 85 89 99 113 125 135 148 148 154 148 140 137 134 139 133 137 125 110 98 100 95 74 74 79 55 95 94 82 89 97 92 76 63 72 68 53 48 51 48 41
84 82 98 145 135 146 120 127 137 122 123 119 123 133 144 138 145 148 145 147 146 143 142 141 139 124 116 110 98 86 88 87 85 51 72 94 96 94 87 92 77 65 62 69 72 63 58 59 50
201 204 208 212 209 180 177 178 152 152 147 137 136 141 133 129 138 146 151 153 148 147 141 133 131 115 110 105 97 95 100 99 78 54 53 87 87 85 83 81 71 69 61 61 61 62 64 73 65
233 235 232 216 205 211 215 228 156 149 150 143 146 152 145 151 168 159 151 151 149 142 137 137 140 122 113 109 106 97 99 96 92 70 35 63 80 84 77 76 69 67 59 60 55 52 57 59 60
248 246 238 212 195 221 226 214 157 158 157 156 156 161 161 164 184 161 151 156 153 144 140 144 134 123 107 107 108 89 101 105 100 90 57 52 73 87 87 76 81 74 61 50 50 53 60 69 67
288 286 278 227 159 219 219 196 171 183 173 162 158 171 174 176 186 168 157 157 159 146 146 144 134 132 125 123 117 94 85 97 95 94 91 71 74 83 86 84 76 79 70 52 54 57 51 65 73
303 298 306 319 120 279 271 239 181 173 179 170 171 189 185 183 176 163 160 156 155 145 137 132 135 133 127 125 126 124 117 99 96 85 87 89 89 92 88 79 74 75 86 82 76 65 54 42 67
281 290 308 319 321 289 267 265 201 183 190 191 184 185 180 164 154 150 151 154 159 154 144 137 142 141 132 129 139 148 138 131 119 100 81 87 88 94 116 112 104 94 95 80 75 73 50 356 33
275 291 301 306 305 274 261 258 218 178 170 185 182 173 169 165 153 149 151 156 156 159 155 154 146 141 140 140 139 134 123 126 115 139 128 117 136 138 118 110 114 121 114 109 110 113 87 5 349
283 301 287 282 277 268 252 271 220 176 161 172 166 158 139 127 125 134 145 149 155 154 144 145 145 140 144 147 152 155 152 148 166 151 150 154 140 131 127 120 117 123 125 139 183 147 133 121 331
290 293 278 270 271 276 260 256 222 163 161 164 151 129 119 117 107 113 130 137 138 135 136 142 143 139 144 150 145 155 144 155 147 130 143 160 158 151 138 128 124 132 139 155 185 152 170 160 181
287 282 274 260 258 262 259 245 233 142 149 151 134 121 119 112 99 101 99 94 101 111 120 131 140 142 151 158 159 158 154 165 156 162 170 180 164 167 152 152 161 159 166 172 176 175 170 192 196
272 282 290 256 225 239 228 205 116 92 94 113 127 125 111 106 104 103 105 100 98 112 132 146 143 149 162 173 168 163 169 174 171 172 178 182 166 164 184 179 184 177 176 177 172 176 185 199 192
265 264 275 292 293 302 221 177 101 102 97 104 111 117 114 107 101 103 110 114 115 113 129 157 154 166 177 185 185 174 164 167 166 177 176 174 177 180 178 182 185 192 183 179 168 176 191 195 191
269 271 280 283 290 290 227 144 129 122 116 117 116 115 117 112 104 107 111 118 121 116 103 88 127 149 167 181 186 170 166 172 189 207 195 178 185 178 165 175 183 199 199 197 174 177 202 187 181
261 282 283 276 291 285 255 196 166 141 130 125 123 123 118 117 112 107 109 109 123 126 127 110 84 109 181 171 174 180 197 188 188 193 200 184 182 172 152 177 195 199 189 190 188 169 232 175 179
257 264 273 277 276 290 300 30 79 120 129 128 130 130 126 120 114 107 94 90 109 122 127 130 125 81 49 31 195 191 187 181 178 195 200 198 190 177 167 176 190 207 205 189 184 196 220 200 202
262 271 275 278 285 283 286 295 89 104 123 130 130 130 125 120 116 115 111 103 85 89 118 133 135 118 113 69 0 282 190 180 188 205 205 198 192 187 173 170 182 204 217 214 203 206 214 206 214
Height
1495 1495 1496 1498 1499 1500 1498 1492 1489 1491 1493 1496 1496 1496 1499 1504 1510 1520 1520 1518 1518 1517 1516 1515 1514 1512 1510 1508 1508 1509 1511 1513 1513 1513 1513 1513 1513 1513 1514 1514 1514 1514 1515 1515 1515 1515 1516 1516 1516
1495 1497 1499 1498 1500 1504 1500 1492 1493 1494 1496 1498 1498 1499 1502 1508 1513 1516 1518 1519 1519 1518 1517 1516 1516 1514 1513 1512 1512 1513 1514 1515 1515 1514 1514 1513 1513 1513 1514 1515 1515 1516 1516 1516 1516 1517 1517 1517 1517
1496 1497 1498 1496 1497 1501 1500 1494 1494 1496 1498 1498 1500 1503 1507 1512 1515 1517 1519 1519 1519 1519 1518 1518 1517 1517 1516 1516 1516 1516 1516 1516 1516 1515 1515 1513 1511 1512 1515 1516 1516 1517 1517 1517 1517 1518 1518 1518 1519
1498 1499 1497 1497 1499 1493 1493 1494 1494 1497 1499 1500 1501 1506 1512 1516 1517 1518 1519 1520 1520 1520 1519 1519 1519 1518 1518 1518 1518 1518 1518 1518 1518 1517 1515 1512 1509 1510 1514 1517 1518 1518 1519 1519 1519 1519 1520 1520 1520
1498 1497 1497 1500 1497 1492 1492 1494 1495 1497 1500 1501 1503 1508 1514 1517 1518 1519 1520 1521 1521 1521 1520 1520 1520 1520 1520 1520 1520 1520 1520 1520 1519 1519 1517 1514 1511 1513 1516 1518 1519 1520 1520 1520 1521 1521 1521 1521 1521
1498 1495 1500 1503 1499 1494 1494 1496 1497 1499 1501 1503 1505 1509 1515 1518 1519 1520 1521 1521 1522 1522 1521 1522 1521 1521 1521 1522 1522 1522 1522 1522 1521 1521 1520 1518 1517 1518 1520 1521 1521 1522 1522 1522 1523 1523 1523 1523 1523
1498 1496 1499 1499 1500 1498 1496 1497 1499 1501 1502 1505 1506 1510 1515 1518 1519 1520 1521 1522 1523 1523 1523 1523 1523 1523 1523 1523 1524 1523 1524 1523 1523 1523 1523 1522 1522 1522 1523 1523 1524 1524 1524 1524 1525 1525 1525 1525 1525
1497 1496 1497 1498 1500 1501 1498 1499 1501 1503 1505 1507 1508 1510 1515 1518 1519 1521 1522 1523 1524 1524 1524 1524 1524 1525 1525 1525 1526 1526 1526 1526 1526 1526 1526 1525 1525 1526 1526 1526 1526 1527 1527 1527 1527 1527 1528 1528 1528
1496 1498 1502 1499 1500 1500 1499 1500 1503 1505 1506 1508 1509 1511 1515 1517 1519 1521 1523 1524 1525 1526 1526 1527 1527 1527 1527 1527 1528 1528 1528 1528 1528 1528 1528 1528 1528 1528 1529 1529 1529 1529 1529 1529 1530 1530 1530 1530 1530
1495 1501 1500 1496 1496 1498 1499 1501 1502 1504 1507 1509 1511 1514 1516 1518 1520 1521 1523 1524 1525 1526 1527 1528 1528 1529 1529 1529 1529 1529 1530 1530 1530 1531 1531 1531 1531 1531 1531 1531 1531 1532 1532 1532 1532 1532 1532 1533 1533
1494 1498 1496 1497 1497 1499 1500 1502 1503 1504 1508 1510 1512 1514 1516 1518 1520 1522 1523 1524 1525 1527 1528 1529 1529 1530 1530 1531 1531 1531 1531 1532 1532 1533 1533 1533 1533 1533 1533 1533 1533 1534 1534 1534 1534 1534 1534 1535 1535
1494 1496 1497 1498 1499 1500 1501 1503 1505 1507 1510 1511 1512 1514 1516 1518 1520 1522 1523 1524 1526 1527 1528 1529 1530 1530 1531 1531 1532 1532 1533 1533 1533 1534 1534 1534 1535 1535 1535 1535 1535 1535 1536 1536 1536 1536 1536 1536 1537
1495 1497 1498 1500 1500 1502 1503 1504 1506 1509 1510 1511 1513 1514 1516 1518 1520 1522 1523 1524 1525 1527 1528 1529 1530 1531 1532 1532 1533 1533 1534 1534 1534 1535 1536 1536 1536 1536 1536 1537 1537 1537 1537 1538 1538 1538 1538 1538 1538
1497 1498 1499 1500 1500 1502 1503 1505 1507 1509 1510 1512 1513 1514 1516 1518 1519 1521 1523 1524 1525 1526 1528 1529 1530 1531 1532 1532 1533 1533 1534 1535 1535 1536 1536 1537 1537 1537 1538 1538 1538 1538 1539 1539 1539 1539 1539 1539 1539
1497 1499 1500 1500 1500 1501 1503 1506 1506 1508 1510 1511 1513 1515 1516 1517 1519 1521 1522 1523 1525 1526 1527 1529 1530 1531 1532 1532 1533 1534 1534 1535 1536 1536 1537 1538 1538 1538 1538 1539 1539 1539 1540 1540 1540 1540 1540 1540 1540
1496 1499 1504 1499 1498 1500 1505 1512 1506 1507 1509 1510 1512 1514 1515 1517 1518 1520 1521 1523 1524 1525 1526 1528 1530 1531 1531 1532 1533 1534 1534 1535 1536 1537 1538 1538 1539 1539 1539 1539 1540 1540 1541 1541 1541 1541 1541 1542 1542
1499 1504 1504 1500 1496 1498 1502 1508 1505 1506 1507 1509 1511 1512 1514 1515 1517 1519 1520 1522 1523 1524 1526 1527 1529 1530 1531 1532 1532 1533 1534 1535 1536 1537 1538 1538 1539 1539 1540 1540 1541 1541 1541 1542 1542 1542 1542 1542 1542
1505 1502 1501 1501 1497 1498 1502 1504 1503 1504 1505 1507 1509 1511 1512 1513 1515 1517 1519 1521 1523 1524 1525 1527 1528 1529 1530 1531 1532 1533 1534 1535 1536 1537 1538 1538 1539 1539 1540 1541 1541 1541 1542 1542 1542 1542 1543 1543 1543
1497 1500 1501 1498 1496 1499 1501 1501 1501 1502 1504 1506 1508 1509 1510 1512 1514 1515 1518 1520 1522 1523 1525 1526 1526 1528 1529 1530 1531 1532 1533 1535 1536 1537 1537 1538 1539 1539 1540 1541 1541 1541 1542 1542 1542 1543 1543 1543 1544
1497 1501 1501 1498 1495 1498 1500 1500 1499 1500 1502 1505 1506 1507 1508 1510 1512 1514 1516 1518 1520 1522 1523 1525 1526 1527 1528 1529 1530 1532 1533 1534 1535 1536 1537 1538 1539 1539 1540 1541 1541 1541 1542 1542 1542 1543 1543 1544 1544
1498 1501 1501 1502 1498 1496 1499 1503 1499 1498 1500 1503 1504 1506 1507 1509 1511 1513 1515 1517 1519 1521 1522 1524 1525 1526 1527 1528 1530 1531 1532 1533 1534 1535 1536 1537 1538 1539 1540 1540 1541 1541 1541 1542 1542 1543 1543 1544 1544
1501 1496 1497 1499 1503 1505 1500 1513 1502 1496 1499 1501 1503 1505 1506 1508 1510 1512 1514 1516 1518 1519 1521 1522 1524 1525 1526 1527 1528 1529 1531 1532 1533 1534 1535 1536 1537 1538 1539 1540 1541 1541 1541 1541 1542 1543 1543 1543 1544
1496 1494 1495 1496 1499 1502 1498 1506 1503 1494 1500 1500 1502 1504 1506 1508 1509 1511 1513 1515 1517 1519 1520 1521 1522 1524 1524 1525 1527 1528 1529 1531 1532 1533 1534 1535 1536 1537 1538 1539 1539 1540 1541 1541 1542 1542 1543 1543 1544
1493 1494 1493 1492 1498 1510 1498 1503 1507 1498 1497 1498 1501 1504 1506 1508 1510 1511 1513 1514 1516 1517 1519 1520 1521 1522 1523 1524 1525 1526 1527 1529 1531 1532 1533 1534 1535 1536 1537 1538 1538 1539 1539 1540 1541 1541 1542 1543 1543
1495 1502 1512 1512 1513 1508 1491 1499 1504 1495 1493 1496 1500 1504 1506 1508 1510 1511 1512 1514 1515 1516 1517 1518 1519 1521 1522 1523 1524 1525 1526 1528 1529 1530 1531 1532 1533 1534 1535 1536 1537 1538 1538 1539 1540 1540 1541 1541 1542
1495 1499 1516 1522 1514 1505 1496 1501 1500 1493 1494 1497 1501 1504 1506 1508 1510 1511 1512 1513 1515 1516 1517 1517 1518 1519 1520 1521 1523 1524 1525 1526 1528 1529 1530 1531 1532 1532 1533 1534 1535 1536 1537 1538 1538 1539 1539 1540 1540
1496 1497 1495 1504 1503 1507 1501 1499 1497 1494 1496 1499 1502 1505 1507 1509 1510 1512 1513 1513 1514 1515 1516 1517 1517 1518 1519 1520 1521 1522 1523 1524 1525 1527 1528 1529 1530 1530 1531 1532 1533 1534 1535 1536 1536 1537 1538 1538 1539
1491 1492 1496 1505 1514 1516 1504 1500 1503 1499 1498 1499 1502 1505 1507 1509 1510 1512 1513 1513 1514 1515 1515 1516 1516 1517 1518 1519 1520 1521 1522 1523 1524 1525 1526 1527 1528 1529 1529 1530 1531 1532 1533 1534 1534 1535 1536 1537 1537
1493 1494 1495 1498 1500 1512 1515 1510 1491 1494 1496 1499 1502 1505 1507 1509 1510 1511 1512 1513 1514 1515 1515 1515 1516 1516 1517 1517 1518 1519 1520 1521 1522 1523 1524 1525 1526 1526 1527 1528 1529 1530 1531 1532 1532 1533 1534 1535 1535
1489 1492 1495 1506 1505 1500 1509 1511 1491 1493 1495 1498 1501 1504 1507 1508 1510 1511 1512 1513 1514 1514 1514 1515 1515 1515 1516 1517 1517 1518 1518 1519 1520 1521 1522 1523 1523 1524 1525 1526 1526 1528 1529 1529 1530 1530 1531 1532 1533